Back to catalog

SJ 16-02 DEB

AliveLEO
NORAD 43429·DEBRIS·🇨🇳 China

Launched Jun 29, 2016 from Jiuquan Satellite Launch Center

Loading…

Next Passes (next 24 hours)

TLE

FreshSource: Space-Track

Epoch: Sep 13, 2026, 07:34 UTC

1 43429U 16043D   26256.31555273  .00001556  00000-0  30541-3 0  9991
2 43429  74.9607 251.5325 0191633 119.3281 242.7184 14.52276032534190

Track SJ 16-02 DEB in real time with AllMySat

Download on the App Store